Time,TemperatureF,DewpointF,PressureIn,WindDirection,WindDirectionDegrees,WindSpeedMPH,WindSpeedGustMPH,Humidity,HourlyPrecipIn,Conditions,Clouds,dailyrainin,SolarRadiationWatts/m^2,SoftwareType,DateUTC
2013-06-07 00:03:00,58.9,48.8,29.88,NE,53,5.0,10.0,69,0.00,,CLR,0.00,0.00,VWS V14.01,2013-06-07 05:03:00,
2013-06-07 00:09:00,58.9,49.2,29.88,NNE,17,5.0,6.0,70,0.00,,CLR,0.00,0.00,VWS V14.01,2013-06-07 05:09:00,
2013-06-07 00:14:00,58.7,49.0,29.88,NNE,30,6.0,8.0,70,0.00,,CLR,0.00,0.00,VWS V14.01,2013-06-07 05:14:00,
2013-06-07 00:19:00,58.6,49.2,29.88,NNE,16,6.0,7.0,71,0.00,,CLR,0.00,0.00,VWS V14.01,2013-06-07 05:19:00,
2013-06-07 00:25:00,58.3,49.3,29.88,NNE,19,5.0,5.0,72,0.00,,CLR,0.00,0.00,VWS V14.01,2013-06-07 05:25:00,
2013-06-07 00:30:00,58.1,49.5,29.88,NNE,15,6.0,7.0,73,0.00,,CLR,0.00,0.00,VWS V14.01,2013-06-07 05:30:00,
2013-06-07 00:35:00,58.0,49.4,29.88,NNE,12,2.0,6.0,73,0.00,,CLR,0.00,0.00,VWS V14.01,2013-06-07 05:35:00,
2013-06-07 00:40:00,57.6,49.8,29.88,North,351,5.0,6.0,75,0.00,,CLR,0.00,0.00,VWS V14.01,2013-06-07 05:40:00,
2013-06-07 00:45:00,57.2,49.4,29.88,NE,34,9.0,11.0,75,0.00,,CLR,0.00,0.00,VWS V14.01,2013-06-07 05:45:00,
2013-06-07 00:50:00,56.9,48.7,29.88,NNE,24,6.0,9.0,74,0.00,,CLR,0.00,0.00,VWS V14.01,2013-06-07 05:50:00,
2013-06-07 00:55:00,56.7,47.8,29.88,North,5,10.0,13.0,72,0.00,,CLR,0.00,0.00,VWS V14.01,2013-06-07 05:55:00,
2013-06-07 01:00:00,56.7,48.2,29.88,NE,41,5.0,10.0,73,0.00,,CLR,0.00,0.00,VWS V14.01,2013-06-07 06:00:00,
2013-06-07 01:06:00,56.7,48.2,29.88,NE,55,4.0,6.0,73,0.00,,CLR,0.00,0.00,VWS V14.01,2013-06-07 06:06:00,
2013-06-07 01:12:00,56.7,48.2,29.88,NE,42,5.0,6.0,73,0.00,,CLR,0.00,0.00,VWS V14.01,2013-06-07 06:12:00,
2013-06-07 01:17:00,56.6,48.1,29.88,NE,43,5.0,7.0,73,0.00,,CLR,0.00,0.00,VWS V14.01,2013-06-07 06:17:00,
2013-06-07 01:23:00,56.6,48.1,29.88,NE,40,5.0,6.0,73,0.00,,CLR,0.00,0.00,VWS V14.01,2013-06-07 06:23:00,
2013-06-07 01:29:00,56.5,48.3,29.88,NE,38,4.0,6.0,74,0.00,,CLR,0.00,0.00,VWS V14.01,2013-06-07 06:29:00,
2013-06-07 01:34:00,56.3,48.1,29.88,NE,38,5.0,8.0,74,0.00,,CLR,0.00,0.00,VWS V14.01,2013-06-07 06:34:00,
2013-06-07 01:39:00,56.2,48.4,29.88,NE,36,2.0,6.0,75,0.00,,CLR,0.00,0.00,VWS V14.01,2013-06-07 06:39:00,
2013-06-07 01:44:00,56.0,48.5,29.88,NNE,17,1.0,5.0,76,0.00,,CLR,0.00,0.00,VWS V14.01,2013-06-07 06:44:00,
2013-06-07 01:49:00,55.9,48.8,29.88,NNE,17,1.0,4.0,77,0.00,,CLR,0.00,0.00,VWS V14.01,2013-06-07 06:49:00,
2013-06-07 01:54:00,55.7,48.6,29.88,NNE,23,2.0,3.0,77,0.00,,CLR,0.00,0.00,VWS V14.01,2013-06-07 06:54:00,
2013-06-07 02:00:00,55.6,48.9,29.88,NNE,28,0.0,5.0,78,0.00,,BKN080,0.00,0.00,VWS V14.01,2013-06-07 07:00:00,
2013-06-07 02:05:00,55.6,48.9,29.88,NNE,28,0.0,1.0,78,0.00,,BKN080,0.00,0.00,VWS V14.01,2013-06-07 07:05:00,
2013-06-07 02:10:00,55.4,49.0,29.88,NNE,28,1.0,3.0,79,0.00,,BKN080,0.00,0.00,VWS V14.01,2013-06-07 07:10:00,
2013-06-07 02:15:00,55.3,49.2,29.88,NNE,28,0.0,1.0,80,0.00,,BKN080,0.00,0.00,VWS V14.01,2013-06-07 07:15:00,
2013-06-07 02:20:00,55.1,49.4,29.88,NNE,28,0.0,3.0,81,0.00,,BKN080,0.00,0.00,VWS V14.01,2013-06-07 07:20:00,
2013-06-07 02:25:00,55.0,49.3,29.88,NNE,24,2.0,4.0,81,0.00,,BKN080,0.00,0.00,VWS V14.01,2013-06-07 07:25:00,
2013-06-07 02:30:00,54.8,49.4,29.87,NNE,24,0.0,0.0,82,0.00,,BKN080,0.00,0.00,VWS V14.01,2013-06-07 07:30:00,
2013-06-07 02:36:00,54.7,49.3,29.87,NNE,25,2.0,6.0,82,0.00,,BKN080,0.00,0.00,VWS V14.01,2013-06-07 07:36:00,
2013-06-07 02:42:00,54.7,49.0,29.87,NNE,28,2.0,6.0,81,0.00,,BKN080,0.00,0.00,VWS V14.01,2013-06-07 07:42:00,
2013-06-07 02:47:00,54.8,48.8,29.87,NNE,29,0.0,5.0,80,0.00,,BKN080,0.00,0.00,VWS V14.01,2013-06-07 07:47:00,
2013-06-07 02:52:00,54.8,48.8,29.88,NNE,28,0.0,4.0,80,0.00,,BKN080,0.00,0.00,VWS V14.01,2013-06-07 07:52:00,
2013-06-07 02:58:00,54.8,48.4,29.87,NNE,27,4.0,7.0,79,0.00,,BKN080,0.00,0.00,VWS V14.01,2013-06-07 07:58:00,
2013-06-07 03:03:00,54.8,48.4,29.87,NNE,27,1.0,3.0,79,0.00,,FEW080,0.00,0.00,VWS V14.01,2013-06-07 08:03:00,
2013-06-07 03:08:00,54.8,48.4,29.87,NNE,27,4.0,5.0,79,0.00,,FEW080,0.00,0.00,VWS V14.01,2013-06-07 08:08:00,
2013-06-07 03:14:00,54.8,48.4,29.88,NNE,28,2.0,5.0,79,0.00,,FEW080,0.00,0.00,VWS V14.01,2013-06-07 08:14:00,
2013-06-07 03:19:00,54.8,48.8,29.88,NNW,342,5.0,7.0,80,0.00,,FEW080,0.00,0.00,VWS V14.01,2013-06-07 08:19:00,
2013-06-07 03:25:00,54.8,48.8,29.88,North,5,4.0,4.0,80,0.00,,FEW080,0.00,0.00,VWS V14.01,2013-06-07 08:25:00,
2013-06-07 03:30:00,54.7,48.7,29.87,North,5,3.0,7.0,80,0.00,,FEW080,0.00,0.00,VWS V14.01,2013-06-07 08:30:00,
2013-06-07 03:35:00,54.7,48.7,29.87,North,351,2.0,6.0,80,0.00,,FEW080,0.00,0.00,VWS V14.01,2013-06-07 08:35:00,
2013-06-07 03:40:00,54.7,48.7,29.87,NW,317,2.0,3.0,80,0.00,,FEW080,0.00,0.00,VWS V14.01,2013-06-07 08:40:00,
2013-06-07 03:45:00,54.7,48.7,29.87,NNW,344,3.0,7.0,80,0.00,,FEW080,0.00,0.00,VWS V14.01,2013-06-07 08:45:00,
2013-06-07 03:50:00,54.7,49.0,29.87,North,351,6.0,6.0,81,0.00,,FEW080,0.00,0.00,VWS V14.01,2013-06-07 08:50:00,
2013-06-07 03:55:00,54.7,49.0,29.87,NNE,29,2.0,5.0,81,0.00,,FEW080,0.00,0.00,VWS V14.01,2013-06-07 08:55:00,
2013-06-07 04:00:00,54.7,49.0,29.87,NNE,22,5.0,5.0,81,0.00,,FEW080,0.00,0.00,VWS V14.01,2013-06-07 09:00:00,
2013-06-07 04:06:00,54.5,49.1,29.88,North,10,1.0,5.0,82,0.00,,BKN,0.00,0.00,VWS V14.01,2013-06-07 09:06:00,
2013-06-07 04:12:00,54.5,49.1,29.88,NNW,344,2.0,5.0,82,0.00,,BKN,0.00,0.00,VWS V14.01,2013-06-07 09:12:00,
2013-06-07 04:17:00,54.5,49.1,29.88,NNE,19,6.0,8.0,82,0.00,,BKN,0.00,0.00,VWS V14.01,2013-06-07 09:17:00,
2013-06-07 04:23:00,54.5,49.1,29.88,NNE,17,2.0,3.0,82,0.00,,BKN,0.00,0.00,VWS V14.01,2013-06-07 09:23:00,
2013-06-07 04:28:00,54.5,48.8,29.87,NW,317,5.0,5.0,81,0.00,,BKN,0.00,0.00,VWS V14.01,2013-06-07 09:28:00,
2013-06-07 04:33:00,54.5,49.1,29.88,NNE,18,2.0,6.0,82,0.00,,BKN,0.00,0.00,VWS V14.01,2013-06-07 09:33:00,
2013-06-07 04:38:00,54.5,49.1,29.88,North,11,4.0,9.0,82,0.00,,BKN,0.00,0.00,VWS V14.01,2013-06-07 09:38:00,
2013-06-07 04:43:00,54.4,49.0,29.88,NNW,327,2.0,3.0,82,0.00,,BKN,0.00,0.00,VWS V14.01,2013-06-07 09:43:00,
2013-06-07 04:48:00,54.4,49.0,29.88,NNE,29,4.0,5.0,82,0.00,,BKN,0.00,0.00,VWS V14.01,2013-06-07 09:48:00,
2013-06-07 04:53:00,54.2,48.5,29.88,NNE,26,4.0,5.0,81,0.00,,BKN,0.00,0.00,VWS V14.01,2013-06-07 09:53:00,
2013-06-07 04:58:00,54.1,48.4,29.88,North,360,4.0,7.0,81,0.00,,BKN,0.00,0.00,VWS V14.01,2013-06-07 09:58:00,
2013-06-07 05:03:00,53.9,48.2,29.88,North,351,4.0,5.0,81,0.00,,BKN080,0.00,0.00,VWS V14.01,2013-06-07 10:03:00,
2013-06-07 05:08:00,53.9,48.2,29.88,NNE,19,0.0,3.0,81,0.00,,BKN080,0.00,0.00,VWS V14.01,2013-06-07 10:08:00,
2013-06-07 05:13:00,53.8,48.1,29.88,NNW,348,5.0,9.0,81,0.00,,BKN080,0.00,0.00,VWS V14.01,2013-06-07 10:13:00,
2013-06-07 05:18:00,53.6,47.9,29.88,North,360,3.0,5.0,81,0.00,,BKN080,0.00,0.00,VWS V14.01,2013-06-07 10:18:00,
2013-06-07 05:23:00,53.5,47.8,29.88,North,360,3.0,6.0,81,0.00,,BKN080,0.00,0.00,VWS V14.01,2013-06-07 10:23:00,
2013-06-07 05:28:00,53.5,47.8,29.88,North,5,2.0,7.0,81,0.00,,BKN080,0.00,0.00,VWS V14.01,2013-06-07 10:28:00,
2013-06-07 05:33:00,53.3,47.6,29.88,NNE,16,6.0,6.0,81,0.00,,BKN080,0.00,5.00,VWS V14.01,2013-06-07 10:33:00,
2013-06-07 05:38:00,53.3,48.0,29.88,NNE,19,3.0,7.0,82,0.00,,BKN080,0.00,7.00,VWS V14.01,2013-06-07 10:38:00,
2013-06-07 05:43:00,53.3,48.0,29.88,North,350,6.0,6.0,82,0.00,,BKN080,0.00,11.00,VWS V14.01,2013-06-07 10:43:00,
2013-06-07 05:48:00,53.3,48.0,29.89,NNW,335,3.0,4.0,82,0.00,,BKN080,0.00,16.00,VWS V14.01,2013-06-07 10:48:00,
2013-06-07 05:53:00,53.2,47.9,29.89,NNW,336,1.0,5.0,82,0.00,,BKN080,0.00,21.00,VWS V14.01,2013-06-07 10:53:00,
2013-06-07 05:58:00,53.2,48.2,29.89,NNW,344,5.0,5.0,83,0.00,,BKN080,0.00,25.00,VWS V14.01,2013-06-07 10:58:00,
2013-06-07 06:03:00,53.1,48.1,29.89,North,9,5.0,5.0,83,0.00,,BKN080,0.00,25.00,VWS V14.01,2013-06-07 11:03:00,
2013-06-07 06:08:00,53.1,48.1,29.89,North,360,1.0,3.0,83,0.00,,BKN080,0.00,28.00,VWS V14.01,2013-06-07 11:08:00,
2013-06-07 06:13:00,53.2,48.2,29.89,North,360,0.0,6.0,83,0.00,,BKN080,0.00,32.00,VWS V14.01,2013-06-07 11:13:00,
2013-06-07 06:18:00,53.2,48.2,29.90,NNW,333,4.0,5.0,83,0.00,,BKN080,0.00,46.00,VWS V14.01,2013-06-07 11:18:00,
2013-06-07 06:23:00,53.3,48.3,29.90,NNE,16,4.0,7.0,83,0.00,,BKN080,0.00,49.00,VWS V14.01,2013-06-07 11:23:00,
2013-06-07 06:28:00,53.6,48.6,29.90,NNW,338,3.0,5.0,83,0.00,,BKN080,0.00,62.00,VWS V14.01,2013-06-07 11:28:00,
2013-06-07 06:33:00,53.9,48.5,29.90,North,351,3.0,5.0,82,0.00,,BKN080,0.00,77.00,VWS V14.01,2013-06-07 11:33:00,
2013-06-07 06:38:00,54.1,48.7,29.90,NE,42,5.0,8.0,82,0.00,,BKN080,0.00,93.00,VWS V14.01,2013-06-07 11:38:00,
2013-06-07 06:43:00,54.2,48.5,29.90,NW,324,3.0,6.0,81,0.00,,BKN080,0.00,120.00,VWS V14.01,2013-06-07 11:43:00,
2013-06-07 06:48:00,54.4,48.7,29.90,NNW,334,2.0,8.0,81,0.00,,BKN080,0.00,137.00,VWS V14.01,2013-06-07 11:48:00,
2013-06-07 06:53:00,54.5,48.8,29.90,North,360,0.0,6.0,81,0.00,,BKN080,0.00,146.00,VWS V14.01,2013-06-07 11:53:00,
2013-06-07 06:59:00,54.8,48.8,29.90,NNE,18,3.0,5.0,80,0.00,,BKN080,0.00,181.00,VWS V14.01,2013-06-07 11:59:00,
2013-06-07 07:04:00,55.0,49.0,29.90,North,360,7.0,9.0,80,0.00,,BKN085,0.00,199.00,VWS V14.01,2013-06-07 12:04:00,
2013-06-07 07:09:00,55.3,48.9,29.90,North,360,0.0,3.0,79,0.00,,BKN085,0.00,211.00,VWS V14.01,2013-06-07 12:09:00,
2013-06-07 07:14:00,55.4,48.7,29.90,North,11,7.0,7.0,78,0.00,,BKN085,0.00,227.00,VWS V14.01,2013-06-07 12:14:00,
2013-06-07 07:19:00,55.6,48.9,29.90,NNW,341,6.0,9.0,78,0.00,,BKN085,0.00,241.00,VWS V14.01,2013-06-07 12:19:00,
2013-06-07 07:24:00,55.7,49.0,29.90,NNW,344,4.0,6.0,78,0.00,,BKN085,0.00,251.00,VWS V14.01,2013-06-07 12:24:00,
2013-06-07 07:29:00,55.9,48.8,29.90,NNE,25,4.0,9.0,77,0.00,,BKN085,0.00,267.00,VWS V14.01,2013-06-07 12:29:00,
2013-06-07 07:34:00,56.2,49.1,29.90,North,360,2.0,5.0,77,0.00,,BKN085,0.00,285.00,VWS V14.01,2013-06-07 12:34:00,
2013-06-07 07:39:00,56.6,49.5,29.90,NNW,347,5.0,9.0,77,0.00,,BKN085,0.00,306.00,VWS V14.01,2013-06-07 12:39:00,
2013-06-07 07:44:00,56.7,49.2,29.90,NNE,17,3.0,11.0,76,0.00,,BKN085,0.00,323.00,VWS V14.01,2013-06-07 12:44:00,
2013-06-07 07:49:00,56.7,49.2,29.90,NNE,15,10.0,10.0,76,0.00,,BKN085,0.00,338.00,VWS V14.01,2013-06-07 12:49:00,
2013-06-07 07:54:00,56.7,49.2,29.91,NNE,19,4.0,6.0,76,0.00,,BKN085,0.00,350.00,VWS V14.01,2013-06-07 12:54:00,
2013-06-07 07:59:00,57.2,50.1,29.91,NNE,30,0.0,6.0,77,0.00,,BKN085,0.00,366.00,VWS V14.01,2013-06-07 12:59:00,
2013-06-07 08:04:00,57.3,49.8,29.91,NE,38,4.0,8.0,76,0.00,,CLR,0.00,387.00,VWS V14.01,2013-06-07 13:04:00,
2013-06-07 08:09:00,57.5,50.0,29.91,NNE,26,7.0,9.0,76,0.00,,CLR,0.00,404.00,VWS V14.01,2013-06-07 13:09:00,
2013-06-07 08:14:00,58.0,50.1,29.91,NNE,16,3.0,6.0,75,0.00,,CLR,0.00,422.00,VWS V14.01,2013-06-07 13:14:00,
2013-06-07 08:19:00,58.3,50.4,29.91,North,360,5.0,9.0,75,0.00,,CLR,0.00,443.00,VWS V14.01,2013-06-07 13:19:00,
2013-06-07 08:24:00,58.6,50.7,29.91,NNE,29,7.0,10.0,75,0.00,,CLR,0.00,455.00,VWS V14.01,2013-06-07 13:24:00,
2013-06-07 08:29:00,58.7,50.8,29.91,North,10,6.0,9.0,75,0.00,,CLR,0.00,471.00,VWS V14.01,2013-06-07 13:29:00,
2013-06-07 08:34:00,59.0,50.7,29.91,NNE,15,6.0,8.0,74,0.00,,CLR,0.00,485.00,VWS V14.01,2013-06-07 13:34:00,
2013-06-07 08:39:00,59.3,51.4,29.91,WNW,292,4.0,6.0,75,0.00,,CLR,0.00,504.00,VWS V14.01,2013-06-07 13:39:00,
2013-06-07 08:44:00,59.6,51.3,29.91,NNE,20,4.0,6.0,74,0.00,,CLR,0.00,520.00,VWS V14.01,2013-06-07 13:44:00,
2013-06-07 08:49:00,60.2,51.9,29.92,NNE,17,3.0,8.0,74,0.00,,CLR,0.00,538.00,VWS V14.01,2013-06-07 13:49:00,
2013-06-07 08:54:00,60.7,52.0,29.92,North,351,6.0,7.0,73,0.00,,CLR,0.00,554.00,VWS V14.01,2013-06-07 13:54:00,
2013-06-07 08:59:00,60.9,52.2,29.92,North,351,2.0,8.0,73,0.00,,CLR,0.00,577.00,VWS V14.01,2013-06-07 13:59:00,
2013-06-07 09:04:00,61.2,52.1,29.92,North,360,2.0,7.0,72,0.00,,CLR,0.00,589.00,VWS V14.01,2013-06-07 14:04:00,
2013-06-07 09:09:00,61.5,52.0,29.91,North,360,4.0,8.0,71,0.00,,CLR,0.00,606.00,VWS V14.01,2013-06-07 14:09:00,
2013-06-07 09:14:00,61.5,51.6,29.91,NNE,19,6.0,7.0,70,0.00,,CLR,0.00,622.00,VWS V14.01,2013-06-07 14:14:00,
2013-06-07 09:19:00,61.5,52.0,29.91,NNE,22,1.0,5.0,71,0.00,,CLR,0.00,631.00,VWS V14.01,2013-06-07 14:19:00,
2013-06-07 09:24:00,62.0,52.5,29.92,NNE,17,9.0,9.0,71,0.00,,CLR,0.00,649.00,VWS V14.01,2013-06-07 14:24:00,
2013-06-07 09:29:00,62.0,52.1,29.92,NE,44,5.0,7.0,70,0.00,,CLR,0.00,663.00,VWS V14.01,2013-06-07 14:29:00,
2013-06-07 09:34:00,62.3,52.8,29.91,NNE,15,5.0,7.0,71,0.00,,CLR,0.00,679.00,VWS V14.01,2013-06-07 14:34:00,
2013-06-07 09:40:00,62.6,52.3,29.91,NNE,30,8.0,8.0,69,0.00,,CLR,0.00,689.00,VWS V14.01,2013-06-07 14:40:00,
2013-06-07 09:45:00,62.7,52.8,29.91,NW,321,3.0,10.0,70,0.00,,CLR,0.00,703.00,VWS V14.01,2013-06-07 14:45:00,
2013-06-07 09:50:00,63.2,52.9,29.91,NNE,22,5.0,9.0,69,0.00,,CLR,0.00,717.00,VWS V14.01,2013-06-07 14:50:00,
2013-06-07 09:55:00,63.5,52.8,29.91,NNE,17,5.0,10.0,68,0.00,,CLR,0.00,729.00,VWS V14.01,2013-06-07 14:55:00,
2013-06-07 10:00:00,63.5,53.2,29.91,NNW,329,8.0,8.0,69,0.00,,CLR,0.00,738.00,VWS V14.01,2013-06-07 15:00:00,
2013-06-07 10:05:00,64.2,53.8,29.91,NNW,348,5.0,7.0,69,0.00,,CLR,0.00,749.00,VWS V14.01,2013-06-07 15:05:00,
2013-06-07 10:10:00,64.2,53.0,29.91,NNE,16,2.0,8.0,67,0.00,,CLR,0.00,761.00,VWS V14.01,2013-06-07 15:10:00,
2013-06-07 10:15:00,64.5,52.9,29.91,North,360,3.0,10.0,66,0.00,,CLR,0.00,772.00,VWS V14.01,2013-06-07 15:15:00,
2013-06-07 10:20:00,64.5,52.5,29.91,NE,37,7.0,12.0,65,0.00,,CLR,0.00,784.00,VWS V14.01,2013-06-07 15:20:00,
2013-06-07 10:26:00,64.8,52.8,29.91,NNE,21,6.0,11.0,65,0.00,,CLR,0.00,800.00,VWS V14.01,2013-06-07 15:26:00,
2013-06-07 10:31:00,64.5,52.9,29.91,North,11,8.0,9.0,66,0.00,,CLR,0.00,809.00,VWS V14.01,2013-06-07 15:31:00,
2013-06-07 10:37:00,65.2,53.2,29.91,North,11,4.0,6.0,65,0.00,,CLR,0.00,821.00,VWS V14.01,2013-06-07 15:37:00,
2013-06-07 10:42:00,65.6,53.1,29.91,NW,309,5.0,10.0,64,0.00,,CLR,0.00,831.00,VWS V14.01,2013-06-07 15:42:00,
2013-06-07 10:47:00,66.0,53.5,29.91,NNE,30,5.0,8.0,64,0.00,,CLR,0.00,853.00,VWS V14.01,2013-06-07 15:47:00,
2013-06-07 10:52:00,65.6,52.2,29.91,NW,323,6.0,10.0,62,0.00,,CLR,0.00,860.00,VWS V14.01,2013-06-07 15:52:00,
2013-06-07 10:57:00,66.1,52.7,29.91,WNW,299,6.0,9.0,62,0.00,,CLR,0.00,863.00,VWS V14.01,2013-06-07 15:57:00,
2013-06-07 11:02:00,66.3,53.3,29.91,North,360,9.0,9.0,63,0.00,,CLR,0.00,867.00,VWS V14.01,2013-06-07 16:02:00,
2013-06-07 11:07:00,66.8,53.8,29.91,NE,36,3.0,6.0,63,0.00,,CLR,0.00,875.00,VWS V14.01,2013-06-07 16:07:00,
2013-06-07 11:12:00,67.3,52.0,29.91,NNE,27,9.0,11.0,58,0.00,,CLR,0.00,891.00,VWS V14.01,2013-06-07 16:12:00,
2013-06-07 11:17:00,66.9,53.0,29.91,NNW,340,9.0,12.0,61,0.00,,CLR,0.00,886.00,VWS V14.01,2013-06-07 16:17:00,
2013-06-07 11:22:00,67.3,53.0,29.91,North,11,5.0,8.0,60,0.00,,CLR,0.00,896.00,VWS V14.01,2013-06-07 16:22:00,
2013-06-07 11:27:00,67.3,52.0,29.91,NE,36,5.0,12.0,58,0.00,,CLR,0.00,905.00,VWS V14.01,2013-06-07 16:27:00,
2013-06-07 11:33:00,67.3,52.0,29.91,NNE,17,5.0,7.0,58,0.00,,CLR,0.00,918.00,VWS V14.01,2013-06-07 16:33:00,
2013-06-07 11:38:00,67.4,53.0,29.91,North,10,6.0,8.0,60,0.00,,CLR,0.00,925.00,VWS V14.01,2013-06-07 16:38:00,
2013-06-07 11:43:00,67.8,52.5,29.91,NNE,25,9.0,10.0,58,0.00,,CLR,0.00,928.00,VWS V14.01,2013-06-07 16:43:00,
2013-06-07 11:48:00,68.1,52.8,29.91,NW,311,2.0,9.0,58,0.00,,CLR,0.00,926.00,VWS V14.01,2013-06-07 16:48:00,
2013-06-07 11:53:00,68.9,53.5,29.91,NNW,333,4.0,9.0,58,0.00,,CLR,0.00,940.00,VWS V14.01,2013-06-07 16:53:00,
2013-06-07 11:58:00,69.1,51.8,29.91,NNE,30,8.0,8.0,54,0.00,,CLR,0.00,963.00,VWS V14.01,2013-06-07 16:58:00,
2013-06-07 12:03:00,69.1,52.3,29.91,NNE,21,5.0,12.0,55,0.00,,CLR,0.00,947.00,VWS V14.01,2013-06-07 17:03:00,
2013-06-07 12:09:00,69.4,52.5,29.91,NNE,31,3.0,7.0,55,0.00,,CLR,0.00,969.00,VWS V14.01,2013-06-07 17:09:00,
2013-06-07 12:14:00,69.4,50.0,29.91,NE,40,8.0,13.0,50,0.00,,CLR,0.00,974.00,VWS V14.01,2013-06-07 17:14:00,
2013-06-07 12:19:00,69.1,50.8,29.90,NNE,22,10.0,12.0,52,0.00,,CLR,0.00,954.00,VWS V14.01,2013-06-07 17:19:00,
2013-06-07 12:24:00,69.1,52.8,29.90,NW,320,3.0,8.0,56,0.00,,CLR,0.00,965.00,VWS V14.01,2013-06-07 17:24:00,
2013-06-07 12:29:00,69.6,52.7,29.90,NE,53,3.0,10.0,55,0.00,,CLR,0.00,972.00,VWS V14.01,2013-06-07 17:29:00,
2013-06-07 12:34:00,70.3,52.4,29.90,NE,34,8.0,10.0,53,0.00,,CLR,0.00,976.00,VWS V14.01,2013-06-07 17:34:00,
2013-06-07 12:39:00,70.1,51.2,29.90,NNE,20,13.0,13.0,51,0.00,,CLR,0.00,1004.00,VWS V14.01,2013-06-07 17:39:00,
2013-06-07 12:44:00,69.6,50.7,29.90,NE,38,8.0,8.0,51,0.00,,CLR,0.00,1067.00,VWS V14.01,2013-06-07 17:44:00,
2013-06-07 12:50:00,69.6,51.2,29.90,NNE,21,5.0,8.0,52,0.00,,CLR,0.00,1067.00,VWS V14.01,2013-06-07 17:50:00,
2013-06-07 12:55:00,69.8,52.4,29.90,NE,54,2.0,4.0,54,0.00,,CLR,0.00,1079.00,VWS V14.01,2013-06-07 17:55:00,
2013-06-07 13:00:00,70.6,51.6,29.90,NNE,33,4.0,8.0,51,0.00,,CLR,0.00,1106.00,VWS V14.01,2013-06-07 18:00:00,
2013-06-07 13:05:00,70.8,51.3,29.90,North,351,9.0,12.0,50,0.00,,CLR,0.00,1194.00,VWS V14.01,2013-06-07 18:05:00,
2013-06-07 13:10:00,70.4,50.9,29.90,NNE,15,7.0,9.0,50,0.00,,CLR,0.00,476.00,VWS V14.01,2013-06-07 18:10:00,
2013-06-07 13:16:00,70.4,52.0,29.90,NNW,333,3.0,4.0,52,0.00,,CLR,0.00,339.00,VWS V14.01,2013-06-07 18:16:00,
2013-06-07 13:22:00,70.3,52.4,29.89,North,360,9.0,9.0,53,0.00,,CLR,0.00,345.00,VWS V14.01,2013-06-07 18:22:00,
2013-06-07 13:27:00,69.9,51.5,29.89,North,351,6.0,10.0,52,0.00,,CLR,0.00,515.00,VWS V14.01,2013-06-07 18:27:00,
2013-06-07 13:32:00,70.3,51.9,29.89,NW,317,2.0,6.0,52,0.00,,CLR,0.00,504.00,VWS V14.01,2013-06-07 18:32:00,
2013-06-07 13:37:00,70.4,51.4,29.89,North,11,9.0,9.0,51,0.00,,CLR,0.00,392.00,VWS V14.01,2013-06-07 18:37:00,
2013-06-07 13:42:00,70.4,52.0,29.89,North,9,1.0,6.0,52,0.00,,CLR,0.00,461.00,VWS V14.01,2013-06-07 18:42:00,
2013-06-07 13:49:00,70.1,52.2,29.89,NE,39,4.0,9.0,53,0.00,,CLR,0.00,411.00,VWS V14.01,2013-06-07 18:49:00,
2013-06-07 13:54:00,70.6,53.2,29.89,NNE,19,7.0,8.0,54,0.00,,CLR,0.00,1253.00,VWS V14.01,2013-06-07 18:54:00,
2013-06-07 13:59:00,70.4,52.0,29.89,NE,49,8.0,10.0,52,0.00,,CLR,0.00,983.00,VWS V14.01,2013-06-07 18:59:00,
2013-06-07 14:04:00,70.6,52.7,29.89,NNE,21,4.0,8.0,53,0.00,,FEW050,0.00,1113.00,VWS V14.01,2013-06-07 19:04:00,
2013-06-07 14:09:00,70.8,53.3,29.89,NE,38,3.0,3.0,54,0.00,,FEW050,0.00,1157.00,VWS V14.01,2013-06-07 19:09:00,
2013-06-07 14:14:00,71.1,53.1,29.89,North,351,3.0,7.0,53,0.00,,FEW050,0.00,1095.00,VWS V14.01,2013-06-07 19:14:00,
2013-06-07 14:19:00,71.5,51.9,29.88,NE,40,8.0,13.0,50,0.00,,FEW050,0.00,1069.00,VWS V14.01,2013-06-07 19:19:00,
2013-06-07 14:25:00,72.0,53.4,29.88,NE,34,2.0,6.0,52,0.00,,FEW050,0.00,1086.00,VWS V14.01,2013-06-07 19:25:00,
2013-06-07 14:31:00,72.7,53.5,29.88,NNE,20,7.0,8.0,51,0.00,,FEW050,0.00,1011.00,VWS V14.01,2013-06-07 19:31:00,
2013-06-07 14:37:00,72.7,53.5,29.88,NE,38,4.0,4.0,51,0.00,,FEW050,0.00,1009.00,VWS V14.01,2013-06-07 19:37:00,
2013-06-07 14:42:00,72.5,53.4,29.88,NW,310,9.0,10.0,51,0.00,,FEW050,0.00,976.00,VWS V14.01,2013-06-07 19:42:00,
2013-06-07 14:48:00,72.5,53.9,29.88,NE,39,2.0,6.0,52,0.00,,FEW050,0.00,942.00,VWS V14.01,2013-06-07 19:48:00,
2013-06-07 14:53:00,72.5,52.3,29.87,NW,326,5.0,9.0,49,0.00,,FEW050,0.00,997.00,VWS V14.01,2013-06-07 19:53:00,
2013-06-07 14:59:00,72.5,54.4,29.87,NNE,16,0.0,7.0,53,0.00,,FEW050,0.00,1025.00,VWS V14.01,2013-06-07 19:59:00,
2013-06-07 15:04:00,72.3,52.6,29.87,North,360,3.0,7.0,50,0.00,,FEW050,0.00,281.00,VWS V14.01,2013-06-07 20:04:00,
2013-06-07 15:09:00,72.0,52.4,29.88,NNE,18,4.0,9.0,50,0.00,,FEW050,0.00,304.00,VWS V14.01,2013-06-07 20:09:00,
2013-06-07 15:14:00,72.0,52.9,29.87,NNW,344,2.0,7.0,51,0.00,,FEW050,0.00,487.00,VWS V14.01,2013-06-07 20:14:00,
2013-06-07 15:22:00,71.6,53.1,29.87,NNE,17,1.0,3.0,52,0.00,,FEW050,0.00,199.00,VWS V14.01,2013-06-07 20:22:00,
2013-06-07 15:27:00,71.5,53.0,29.87,North,349,3.0,5.0,52,0.00,,FEW050,0.00,1004.00,VWS V14.01,2013-06-07 20:27:00,
2013-06-07 15:32:00,72.1,53.0,29.87,North,351,6.0,8.0,51,0.00,,FEW050,0.00,925.00,VWS V14.01,2013-06-07 20:32:00,
2013-06-07 15:37:00,72.8,53.1,29.87,NNW,333,2.0,2.0,50,0.00,,FEW050,0.00,988.00,VWS V14.01,2013-06-07 20:37:00,
2013-06-07 15:43:00,73.7,53.9,29.87,North,360,12.0,12.0,50,0.00,,FEW050,0.00,1000.00,VWS V14.01,2013-06-07 20:43:00,
2013-06-07 15:48:00,73.3,53.0,29.87,North,360,7.0,8.0,49,0.00,,FEW050,0.00,939.00,VWS V14.01,2013-06-07 20:48:00,
2013-06-07 15:53:00,72.5,52.8,29.87,NNE,33,11.0,13.0,50,0.00,,FEW050,0.00,197.00,VWS V14.01,2013-06-07 20:53:00,
2013-06-07 15:58:00,71.8,52.2,29.87,NNW,344,4.0,10.0,50,0.00,,FEW050,0.00,214.00,VWS V14.01,2013-06-07 20:58:00,
2013-06-07 16:03:00,71.8,53.2,29.87,NW,318,1.0,4.0,52,0.00,,BKN044,0.00,223.00,VWS V14.01,2013-06-07 21:03:00,
2013-06-07 16:11:00,72.1,52.5,29.87,NNE,24,3.0,8.0,50,0.00,,BKN044,0.00,258.00,VWS V14.01,2013-06-07 21:11:00,
2013-06-07 16:17:00,72.0,51.8,29.87,NNE,26,3.0,9.0,49,0.00,,BKN044,0.00,234.00,VWS V14.01,2013-06-07 21:17:00,
2013-06-07 16:22:00,71.6,52.5,29.87,NNW,330,4.0,7.0,51,0.00,,BKN044,0.00,322.00,VWS V14.01,2013-06-07 21:22:00,
2013-06-07 16:27:00,71.8,53.2,29.87,WNW,301,4.0,4.0,52,0.00,,BKN044,0.00,807.00,VWS V14.01,2013-06-07 21:27:00,
2013-06-07 16:33:00,72.8,53.1,29.86,WNW,289,4.0,8.0,50,0.00,,BKN044,0.00,740.00,VWS V14.01,2013-06-07 21:33:00,
2013-06-07 16:38:00,73.2,53.5,29.86,West,272,5.0,8.0,50,0.00,,BKN044,0.00,735.00,VWS V14.01,2013-06-07 21:38:00,
2013-06-07 16:43:00,73.5,53.2,29.86,NNE,17,5.0,8.0,49,0.00,,BKN044,0.00,677.00,VWS V14.01,2013-06-07 21:43:00,
2013-06-07 16:50:00,73.7,53.4,29.86,North,351,1.0,4.0,49,0.00,,BKN044,0.00,649.00,VWS V14.01,2013-06-07 21:50:00,
2013-06-07 16:55:00,73.9,52.4,29.86,NE,45,0.0,3.0,47,0.00,,BKN044,0.00,705.00,VWS V14.01,2013-06-07 21:55:00,
2013-06-07 17:01:00,74.0,51.3,29.86,NNW,342,5.0,9.0,45,0.00,,BKN055,0.00,708.00,VWS V14.01,2013-06-07 22:01:00,
2013-06-07 17:07:00,73.7,51.7,29.86,NE,41,3.0,10.0,46,0.00,,BKN055,0.00,654.00,VWS V14.01,2013-06-07 22:07:00,
2013-06-07 17:13:00,73.5,52.6,29.86,NW,319,5.0,7.0,48,0.00,,BKN055,0.00,601.00,VWS V14.01,2013-06-07 22:13:00,
2013-06-07 17:18:00,73.5,52.1,29.86,North,351,5.0,7.0,47,0.00,,BKN055,0.00,585.00,VWS V14.01,2013-06-07 22:18:00,
2013-06-07 17:23:00,73.0,51.0,29.86,NNE,29,5.0,9.0,46,0.00,,BKN055,0.00,144.00,VWS V14.01,2013-06-07 22:23:00,
2013-06-07 17:28:00,72.7,51.9,29.86,NW,309,4.0,8.0,48,0.00,,BKN055,0.00,144.00,VWS V14.01,2013-06-07 22:28:00,
2013-06-07 17:35:00,72.1,51.3,29.86,NNW,342,9.0,10.0,48,0.00,,BKN055,0.00,195.00,VWS V14.01,2013-06-07 22:35:00,
2013-06-07 17:40:00,71.8,51.6,29.86,North,360,7.0,8.0,49,0.00,,BKN055,0.00,197.00,VWS V14.01,2013-06-07 22:40:00,
2013-06-07 17:47:00,71.6,51.5,29.86,NNE,16,3.0,6.0,49,0.00,,BKN055,0.00,223.00,VWS V14.01,2013-06-07 22:47:00,
2013-06-07 17:52:00,72.0,51.8,29.86,NNW,335,4.0,4.0,49,0.00,,BKN055,0.00,480.00,VWS V14.01,2013-06-07 22:52:00,
2013-06-07 17:58:00,72.3,51.0,29.86,North,351,5.0,5.0,47,0.00,,BKN055,0.00,229.00,VWS V14.01,2013-06-07 22:58:00,
2013-06-07 18:03:00,72.1,51.3,29.86,North,11,2.0,6.0,48,0.00,,BKN055,0.00,190.00,VWS V14.01,2013-06-07 23:03:00,
2013-06-07 18:10:00,72.0,50.7,29.86,North,350,5.0,5.0,47,0.00,,BKN055,0.00,399.00,VWS V14.01,2013-06-07 23:10:00,
2013-06-07 18:15:00,72.1,50.8,29.86,NNE,15,0.0,4.0,47,0.00,,BKN055,0.00,139.00,VWS V14.01,2013-06-07 23:15:00,
2013-06-07 18:20:00,72.1,49.6,29.86,NNE,28,6.0,12.0,45,0.00,,BKN055,0.00,125.00,VWS V14.01,2013-06-07 23:20:00,
2013-06-07 18:25:00,72.0,50.1,29.86,NNW,348,7.0,7.0,46,0.00,,BKN055,0.00,325.00,VWS V14.01,2013-06-07 23:25:00,
2013-06-07 18:31:00,72.0,50.1,29.86,NNE,30,7.0,10.0,46,0.00,,BKN055,0.00,279.00,VWS V14.01,2013-06-07 23:31:00,
2013-06-07 18:37:00,71.8,50.5,29.87,NNW,344,3.0,5.0,47,0.00,,BKN055,0.00,220.00,VWS V14.01,2013-06-07 23:37:00,
2013-06-07 18:42:00,71.6,50.3,29.87,NW,321,5.0,7.0,47,0.00,,BKN055,0.00,123.00,VWS V14.01,2013-06-07 23:42:00,
2013-06-07 18:47:00,71.3,50.0,29.87,NNW,333,5.0,7.0,47,0.00,,BKN055,0.00,79.00,VWS V14.01,2013-06-07 23:47:00,
2013-06-07 18:52:00,71.1,49.3,29.87,North,351,6.0,8.0,46,0.00,,BKN055,0.00,218.00,VWS V14.01,2013-06-07 23:52:00,
2013-06-07 18:57:00,71.3,49.5,29.87,NNE,17,1.0,5.0,46,0.00,,BKN055,0.00,195.00,VWS V14.01,2013-06-07 23:57:00,
2013-06-07 19:02:00,71.5,49.7,29.87,North,360,1.0,6.0,46,0.00,,BKN046,0.00,171.00,VWS V14.01,2013-06-08 00:02:00,
2013-06-07 19:08:00,71.3,49.5,29.87,North,9,3.0,4.0,46,0.00,,BKN046,0.00,102.00,VWS V14.01,2013-06-08 00:08:00,
2013-06-07 19:13:00,71.1,49.9,29.87,North,351,2.0,6.0,47,0.00,,BKN046,0.00,44.00,VWS V14.01,2013-06-08 00:13:00,
2013-06-07 19:18:00,70.8,49.6,29.88,NNW,329,3.0,8.0,47,0.00,,BKN046,0.00,40.00,VWS V14.01,2013-06-08 00:18:00,
2013-06-07 19:23:00,70.4,49.8,29.88,NNW,339,5.0,9.0,48,0.00,,BKN046,0.00,113.00,VWS V14.01,2013-06-08 00:23:00,
2013-06-07 19:28:00,70.3,49.7,29.88,North,351,4.0,6.0,48,0.00,,BKN046,0.00,70.00,VWS V14.01,2013-06-08 00:28:00,
2013-06-07 19:33:00,70.3,50.3,29.88,NNW,337,2.0,5.0,49,0.00,,BKN046,0.00,72.00,VWS V14.01,2013-06-08 00:33:00,
2013-06-07 19:38:00,70.3,50.3,29.88,North,360,0.0,4.0,49,0.00,,BKN046,0.00,47.00,VWS V14.01,2013-06-08 00:38:00,
2013-06-07 19:43:00,69.9,49.9,29.88,NNW,343,4.0,6.0,49,0.00,,BKN046,0.00,32.00,VWS V14.01,2013-06-08 00:43:00,
2013-06-07 19:48:00,69.8,50.3,29.88,North,11,6.0,7.0,50,0.00,,BKN046,0.00,32.00,VWS V14.01,2013-06-08 00:48:00,
2013-06-07 19:53:00,69.6,50.2,29.88,NNE,14,3.0,8.0,50,0.00,,BKN046,0.00,26.00,VWS V14.01,2013-06-08 00:53:00,
2013-06-07 19:58:00,69.6,50.2,29.88,North,351,1.0,7.0,50,0.00,,BKN046,0.00,23.00,VWS V14.01,2013-06-08 00:58:00,
2013-06-07 20:04:00,69.3,50.4,29.88,North,351,0.0,2.0,51,0.00,,FEW095,0.00,18.00,VWS V14.01,2013-06-08 01:04:00,
2013-06-07 20:09:00,69.1,50.8,29.88,North,351,0.0,4.0,52,0.00,,FEW095,0.00,14.00,VWS V14.01,2013-06-08 01:09:00,
2013-06-07 20:14:00,68.8,50.5,29.89,North,351,1.0,2.0,52,0.00,,FEW095,0.00,11.00,VWS V14.01,2013-06-08 01:14:00,
2013-06-07 20:19:00,68.6,50.8,29.89,North,351,3.0,3.0,53,0.00,,FEW095,0.00,5.00,VWS V14.01,2013-06-08 01:19:00,
2013-06-07 20:25:00,68.3,51.0,29.89,North,351,0.0,0.0,54,0.00,,FEW095,0.00,0.00,VWS V14.01,2013-06-08 01:25:00,
2013-06-07 20:30:00,68.1,50.8,29.89,North,351,3.0,4.0,54,0.00,,FEW095,0.00,0.00,VWS V14.01,2013-06-08 01:30:00,
2013-06-07 20:35:00,67.8,51.1,29.89,North,351,4.0,4.0,55,0.00,,FEW095,0.00,0.00,VWS V14.01,2013-06-08 01:35:00,
2013-06-07 20:40:00,67.4,50.7,29.89,North,351,2.0,3.0,55,0.00,,FEW095,0.00,0.00,VWS V14.01,2013-06-08 01:40:00,
2013-06-07 20:46:00,67.3,51.1,29.89,North,351,1.0,2.0,56,0.00,,FEW095,0.00,0.00,VWS V14.01,2013-06-08 01:46:00,
2013-06-07 20:51:00,67.1,50.9,29.89,North,351,0.0,1.0,56,0.00,,FEW095,0.00,0.00,VWS V14.01,2013-06-08 01:51:00,
2013-06-07 20:58:00,66.6,50.9,29.89,North,351,0.0,3.0,57,0.00,,FEW095,0.00,0.00,VWS V14.01,2013-06-08 01:58:00,
2013-06-07 21:03:00,66.4,50.7,29.90,North,351,0.0,1.0,57,0.00,,CLR,0.00,0.00,VWS V14.01,2013-06-08 02:03:00,
2013-06-07 21:08:00,66.1,50.9,29.90,North,351,1.0,2.0,58,0.00,,CLR,0.00,0.00,VWS V14.01,2013-06-08 02:08:00,
2013-06-07 21:13:00,66.0,50.8,29.90,North,351,0.0,0.0,58,0.00,,CLR,0.00,0.00,VWS V14.01,2013-06-08 02:13:00,
2013-06-07 21:18:00,66.0,51.3,29.90,North,351,0.0,3.0,59,0.00,,CLR,0.00,0.00,VWS V14.01,2013-06-08 02:18:00,
2013-06-07 21:24:00,65.8,51.1,29.90,North,351,0.0,0.0,59,0.00,,CLR,0.00,0.00,VWS V14.01,2013-06-08 02:24:00,
2013-06-07 21:32:00,65.5,50.8,29.90,North,351,2.0,2.0,59,0.00,,CLR,0.00,0.00,VWS V14.01,2013-06-08 02:32:00,
2013-06-07 21:37:00,65.3,51.1,29.90,North,351,0.0,2.0,60,0.00,,CLR,0.00,0.00,VWS V14.01,2013-06-08 02:37:00,
2013-06-07 21:43:00,65.2,51.0,29.91,North,351,2.0,3.0,60,0.00,,CLR,0.00,0.00,VWS V14.01,2013-06-08 02:43:00,
2013-06-07 21:48:00,65.2,50.5,29.91,North,351,5.0,5.0,59,0.00,,CLR,0.00,0.00,VWS V14.01,2013-06-08 02:48:00,
2013-06-07 21:55:00,65.3,49.2,29.92,NE,38,5.0,8.0,56,0.00,,CLR,0.00,0.00,VWS V14.01,2013-06-08 02:55:00,
2013-06-07 22:01:00,65.3,49.2,29.92,North,351,3.0,5.0,56,0.00,,CLR,0.00,0.00,VWS V14.01,2013-06-08 03:01:00,
2013-06-07 22:06:00,65.2,49.1,29.92,NNE,17,3.0,4.0,56,0.00,,CLR,0.00,0.00,VWS V14.01,2013-06-08 03:06:00,
2013-06-07 22:11:00,64.8,48.8,29.92,NNE,26,3.0,5.0,56,0.00,,CLR,0.00,0.00,VWS V14.01,2013-06-08 03:11:00,
2013-06-07 22:16:00,64.5,48.5,29.92,NE,34,3.0,5.0,56,0.00,,CLR,0.00,0.00,VWS V14.01,2013-06-08 03:16:00,
2013-06-07 22:21:00,64.2,48.7,29.92,NNE,30,3.0,6.0,57,0.00,,CLR,0.00,0.00,VWS V14.01,2013-06-08 03:21:00,
2013-06-07 22:27:00,63.7,48.7,29.92,NNE,31,2.0,4.0,58,0.00,,CLR,0.00,0.00,VWS V14.01,2013-06-08 03:27:00,
2013-06-07 22:32:00,63.4,48.4,29.92,NE,36,2.0,6.0,58,0.00,,CLR,0.00,0.00,VWS V14.01,2013-06-08 03:32:00,
2013-06-07 22:39:00,62.9,47.9,29.92,NE,42,3.0,5.0,58,0.00,,CLR,0.00,0.00,VWS V14.01,2013-06-08 03:39:00,
2013-06-07 22:44:00,62.7,47.7,29.92,NE,42,4.0,5.0,58,0.00,,CLR,0.00,0.00,VWS V14.01,2013-06-08 03:44:00,
2013-06-07 22:50:00,62.3,47.8,29.92,NE,46,1.0,5.0,59,0.00,,CLR,0.00,0.00,VWS V14.01,2013-06-08 03:50:00,
2013-06-07 22:55:00,62.1,48.1,29.92,NE,34,3.0,7.0,60,0.00,,CLR,0.00,0.00,VWS V14.01,2013-06-08 03:55:00,
2013-06-07 23:01:00,61.8,47.8,29.92,NE,56,4.0,8.0,60,0.00,,CLR,0.00,0.00,VWS V14.01,2013-06-08 04:01:00,
2013-06-07 23:02:00,61.6,48.0,29.92,NE,40,4.0,6.0,61,0.00,,CLR,0.00,0.00,VWS V14.01,2013-06-08 04:02:00,
2013-06-07 23:03:00,61.6,48.0,29.93,NE,40,3.0,5.0,61,0.00,,CLR,0.00,0.00,VWS V14.01,2013-06-08 04:03:00,
2013-06-07 23:04:00,61.5,47.9,29.92,NE,38,4.0,5.0,61,0.00,,CLR,0.00,0.00,VWS V14.01,2013-06-08 04:04:00,
2013-06-07 23:07:00,61.3,48.2,29.93,NNE,17,4.0,8.0,62,0.00,,CLR,0.00,0.00,VWS V14.01,2013-06-08 04:07:00,
2013-06-07 23:12:00,61.0,47.9,29.92,NNE,22,7.0,9.0,62,0.00,,CLR,0.00,0.00,VWS V14.01,2013-06-08 04:12:00,
2013-06-07 23:17:00,60.7,48.0,29.92,NE,51,10.0,15.0,63,0.00,,CLR,0.00,0.00,VWS V14.01,2013-06-08 04:17:00,
2013-06-07 23:22:00,60.4,47.8,29.92,NE,44,6.0,7.0,63,0.00,,CLR,0.00,0.00,VWS V14.01,2013-06-08 04:22:00,
2013-06-07 23:28:00,60.1,47.5,29.92,ESE,102,5.0,8.0,63,0.00,,CLR,0.00,0.00,VWS V14.01,2013-06-08 04:28:00,
2013-06-07 23:34:00,59.9,47.3,29.92,NNE,31,1.0,4.0,63,0.00,,CLR,0.00,0.00,VWS V14.01,2013-06-08 04:34:00,
2013-06-07 23:39:00,59.8,46.8,29.93,NNE,32,3.0,3.0,62,0.00,,CLR,0.00,0.00,VWS V14.01,2013-06-08 04:39:00,
2013-06-07 23:44:00,59.6,46.6,29.93,NE,38,3.0,5.0,62,0.00,,CLR,0.00,0.00,VWS V14.01,2013-06-08 04:44:00,
2013-06-07 23:49:00,59.5,46.1,29.93,NE,48,0.0,2.0,61,0.00,,CLR,0.00,0.00,VWS V14.01,2013-06-08 04:49:00,
2013-06-07 23:54:00,59.5,46.1,29.93,NE,49,3.0,4.0,61,0.00,,CLR,0.00,0.00,VWS V14.01,2013-06-08 04:54:00,
2013-06-07 23:59:00,59.3,45.9,29.93,ENE,65,6.0,6.0,61,0.00,,CLR,0.00,0.00,VWS V14.01,2013-06-08 04:59:00,